RH
6 8 9 14 17 17 18 17 16 17 20 24 20 23 21 22 21 27 26 26 24 22 21 21 21 22 21 21 21 20 19 21 25 26 27 29 31 32 33 31 30 29 28 24 24 26 31 32 33
6 8 11 14 16 16 16 15 16 17 21 25 23 25 23 23 22 23 22 20 19 22 20 20 21 22 23 22 23 24 22 22 23 24 25 28 32 34 34 33 32 30 29 26 24 24 26 29 33
7 8 13 14 15 17 15 14 16 18 25 27 26 26 25 25 24 23 19 17 18 22 18 19 21 22 24 23 24 25 24 23 23 24 25 28 31 35 36 35 34 33 30 30 28 26 27 30 31
8 9 9 12 15 14 14 14 16 20 26 27 28 28 26 25 25 24 19 15 19 23 24 20 22 23 25 26 26 27 26 25 25 24 25 27 31 34 36 37 37 34 33 33 32 30 29 30 32
7 9 9 10 12 13 12 13 15 20 24 27 28 30 29 29 27 23 21 17 20 23 26 24 25 28 29 29 29 29 28 26 26 27 27 29 32 34 36 39 39 37 35 35 35 33 33 33 34
8 9 9 10 12 11 11 12 13 18 23 27 29 29 32 30 30 27 25 24 25 24 27 30 31 32 33 32 30 29 30 28 27 29 30 31 34 35 38 42 42 41 39 38 38 38 35 36 37
8 8 9 10 11 12 13 13 13 14 18 20 26 28 32 30 29 30 29 27 27 28 32 35 35 37 38 35 33 31 30 30 29 30 31 34 36 37 41 43 44 45 44 40 40 39 36 36 36
7 7 8 8 9 11 13 13 14 14 15 16 20 28 26 23 21 30 33 32 31 32 34 36 35 38 36 34 30 30 31 31 31 33 33 36 39 41 43 44 46 48 49 45 43 41 37 36 36
7 7 7 8 9 10 12 12 13 13 13 15 18 19 18 15 16 19 27 31 31 34 36 37 35 38 38 33 30 31 33 35 35 37 37 39 42 44 44 47 48 51 51 46 46 40 37 37 36
9 8 8 9 10 11 12 12 12 12 12 12 13 16 15 14 18 20 21 26 30 33 34 35 38 41 40 41 36 37 36 39 40 40 41 43 51 54 55 53 51 53 47 45 39 37 37 37 44
11 10 10 10 12 12 12 12 12 12 11 11 12 12 13 15 16 17 17 19 25 31 36 37 44 47 48 48 45 47 45 48 50 47 47 53 55 58 60 63 61 53 47 43 38 37 38 47 44
12 12 11 13 13 13 13 12 12 11 11 12 13 13 13 14 15 15 17 19 25 32 39 45 49 56 59 56 51 53 53 52 55 55 56 60 62 64 71 73 66 55 49 45 44 44 43 44 40
11 13 13 13 13 12 12 12 12 12 13 16 16 17 17 16 18 21 22 27 30 32 37 45 53 57 62 65 63 62 59 58 64 68 67 69 74 77 79 75 60 49 43 42 43 48 50 47 46
17 16 15 14 14 14 14 14 15 16 17 18 19 20 21 20 21 24 27 27 30 36 39 43 53 57 62 65 66 68 71 69 69 72 75 79 86 90 89 69 52 47 44 43 47 52 53 51 46
20 18 17 16 16 17 17 17 18 19 21 22 22 23 24 25 24 28 31 33 35 38 43 47 50 57 62 68 72 74 75 73 78 84 86 91 91 95 90 55 49 45 41 44 48 47 48 49 43
20 21 19 16 19 20 19 20 21 25 25 26 27 28 28 29 30 28 27 29 35 39 44 44 44 50 57 66 75 79 75 81 82 84 87 97 98 91 75 56 47 43 43 48 55 54 53 54 47
24 21 21 22 23 24 25 25 27 30 31 31 32 32 32 32 30 30 28 28 29 37 43 38 41 46 54 59 65 73 79 88 86 85 90 89 99 91 79 63 51 46 49 53 55 54 57 55 55
26 26 28 29 30 30 31 31 32 35 35 35 34 33 32 31 30 29 27 27 28 35 45 41 46 49 53 58 62 71 82 89 89 91 90 86 91 90 78 69 61 56 56 59 59 57 59 57 60
31 32 31 31 34 37 35 35 35 34 33 32 31 31 31 29 29 28 27 32 37 39 41 45 49 51 53 57 61 66 81 85 92 88 86 90 92 89 83 77 71 68 69 68 70 67 65 65 61
37 37 37 37 39 40 36 34 32 32 31 30 30 30 29 28 28 29 27 28 32 38 40 40 44 47 54 58 63 67 76 75 89 86 81 92 93 84 85 84 82 80 75 72 73 74 72 70 70
43 44 42 43 41 40 37 30 29 30 28 29 29 29 28 25 26 29 27 30 34 36 40 44 49 52 57 62 63 70 77 80 83 82 80 77 79 81 81 86 91 88 82 81 78 73 68 68 69
48 46 46 45 45 39 37 31 31 28 28 29 30 28 27 26 26 26 27 30 33 36 38 42 49 54 60 65 68 73 76 82 84 80 72 72 71 75 76 78 82 80 78 72 68 67 65 67 70
50 49 48 46 43 42 38 36 26 28 28 27 29 29 29 27 28 28 27 26 28 28 30 36 45 51 59 63 65 68 70 72 66 66 62 60 62 68 69 72 67 63 64 63 64 62 60 63 64
52 50 48 46 45 47 35 34 27 31 28 28 29 29 29 29 27 27 27 28 27 28 31 35 41 47 54 57 55 55 53 50 47 44 45 47 49 50 52 59 56 55 54 53 52 48 51 54 56
49 50 53 51 50 42 38 34 29 33 28 27 29 29 28 27 29 28 30 30 32 33 34 36 40 40 36 35 34 32 35 35 34 35 38 37 38 39 39 39 37 41 44 46 47 46 47 49 44
51 49 47 54 46 39 43 39 31 32 32 30 31 30 29 29 30 30 31 32 31 33 37 37 34 32 28 28 32 34 36 39 40 39 38 36 37 35 38 38 39 39 40 42 45 48 51 54 58
48 51 47 57 53 54 39 34 34 34 35 35 33 33 31 31 33 34 32 31 30 33 35 37 37 36 37 36 34 34 33 36 43 41 39 40 38 37 36 35 35 35 35 36 35 34 34 37 41
51 50 62 61 67 60 38 37 36 37 39 39 37 35 34 35 36 36 37 34 34 34 37 36 38 42 40 35 35 35 35 36 37 36 37 38 40 37 36 38 37 38 35 36 36 36 36 37 38
55 55 55 59 58 57 47 36 38 38 39 40 39 36 37 38 39 39 39 39 37 34 38 38 35 35 36 38 36 35 33 35 32 32 32 31 31 30 33 38 37 35 35 34 33 32 32 35 38
62 59 59 63 62 56 59 43 40 38 40 39 38 39 41 40 39 38 39 42 39 34 38 42 40 38 38 36 37 31 30 30 29 28 29 31 33 33 35 36 34 33 32 31 32 32 32 35 37